GW2646 Weather Reports


time (UTC)temp
F
wind
direction
speed
knots
gust
knots
rain 1hr
in
rain 24hr
in
rain mn
in
humidity
%
barometer
mb
20260506165546 54 0 0.0 4.3 0.00 0.00 0.00 92 1019.5
20260506165046 54 165 0.9 4.3 0.00 0.00 0.00 92 1019.5
20260506164615 54 0 0.0 4.3 0.00 0.00 0.00 92 1019.3
20260506164048 54 165 1.7 4.3 0.00 0.00 0.00 92 1019.5
20260506163545 54 0 0.0 4.3 0.00 0.00 0.00 92 1019.6
20260506163108 54 0 1.7 4.3 0.00 0.00 0.00 92 1019.7
20260506162547 54 165 0.9 4.3 0.00 0.00 0.00 92 1019.7
20260506162046 54 165 1.7 6.1 0.00 0.00 0.00 92 1019.6
20260506161553 54 198 0.9 6.1 0.00 0.00 0.00 92 1019.4
20260506161047 54 0 0.9 3.5 0.00 0.00 0.00 92 1019.4
20260506160547 54 197 0.9 6.1 0.00 0.00 0.00 92 1019.3
20260506160107 54 188 2.6 6.1 0.00 0.00 0.00 92 1019.1
20260506155545 54 157 1.7 6.1 0.00 0.00 0.00 93 1019.2
20260506155046 53 187 0.0 6.1 0.00 0.00 0.00 93 1019.2
20260506154557 53 159 0.9 6.1 0.00 0.00 0.00 93 1018.9
20260506154048 53 145 1.7 6.1 0.00 0.00 0.00 93 1018.9
20260506153549 53 156 1.7 4.3 0.00 0.00 0.00 94 1018.9
20260506153054 53 0 0.9 4.3 0.00 0.00 0.00 94 1018.8
20260506152546 53 175 0.9 4.3 0.00 0.00 0.00 94 1018.8
20260506152048 53 180 0.0 4.3 0.00 0.00 0.00 94 1018.8
20260506151553 53 0 1.7 4.3 0.00 0.00 0.00 94 1018.8
20260506151045 53 0 0.9 2.6 0.00 0.00 0.00 94 1019.0
20260506150545 53 0 0.0 1.7 0.00 0.00 0.00 94 1019.1
20260506150103 53 0 0.0 2.6 0.00 0.00 0.00 94 1019.1
20260506145546 53 0 0.0 3.5 0.00 0.00 0.00 94 1019.2
20260506145045 53 0 0.0 3.5 0.00 0.00 0.00 94 1019.2
20260506144553 53 0 0.9 3.5 0.00 0.00 0.00 94 1019.1
20260506144045 53 0 0.9 3.5 0.00 0.00 0.00 95 1018.8
20260506143545 52 214 0.0 3.5 0.00 0.00 0.00 95 1018.8
20260506143051 52 215 0.0 2.6 0.00 0.00 0.00 95 1018.7
20260506142548 52 215 0.0 3.5 0.00 0.00 0.00 95 1018.8
20260506142043 52 214 0.0 3.5 0.00 0.00 0.00 95 1018.9
20260506141552 52 215 0.0 2.6 0.00 0.00 0.00 95 1018.8
20260506141045 52 0 0.0 2.6 0.00 0.00 0.00 95 1018.7
20260506140546 52 0 0.9 2.6 0.00 0.00 0.00 94 1018.8
20260506140056 52 214 0.0 2.6 0.00 0.00 0.00 95 1018.7
20260506135546 52 0 0.0 2.6 0.00 0.00 0.00 95 1018.8
20260506135045 52 0 0.0 1.7 0.00 0.00 0.00 95 1018.7
20260506134555 52 214 0.0 2.6 0.00 0.00 0.00 95 1018.7
20260506134048 52 0 0.0 2.6 0.00 0.00 0.00 95 1018.7
20260506133546 52 215 0.0 2.6 0.00 0.00 0.00 95 1018.8
20260506133106 52 215 0.0 2.6 0.00 0.00 0.00 95 1018.8
20260506132544 52 0 0.0 2.6 0.00 0.00 0.00 95 1018.7
20260506132046 52 214 0.0 2.6 0.00 0.00 0.00 95 1018.9
20260506131606 52 215 0.0 2.6 0.00 0.00 0.00 95 1018.6
20260506131045 52 0 0.0 1.7 0.00 0.00 0.00 95 1018.8
20260506130545 52 215 0.0 0.9 0.00 0.00 0.00 95 1018.7
20260506130051 51 0 0.0 0.9 0.00 0.00 0.00 95 1018.6
20260506125547 51 0 0.0 0.9 0.00 0.00 0.00 95 1018.4
20260506125044 51 0 0.0 1.7 0.00 0.00 0.00 95 1018.3
20260506124557 51 0 0.0 1.7 0.00 0.00 0.00 95 1018.2
20260506124046 51 0 0.0 0.0 0.00 0.00 0.00 95 1018.2
20260506123546 51 0 0.0 0.0 0.00 0.00 0.00 95 1018.2
20260506123057 51 0 0.0 0.9 0.00 0.00 0.00 95 1018.2
20260506122545 51 0 0.0 0.9 0.00 0.00 0.00 95 1018.3
20260506122045 51 0 0.0 0.9 0.00 0.00 0.00 95 1018.3
20260506121556 51 0 0.0 0.9 0.00 0.00 0.00 95 1018.3
20260506121045 51 0 0.0 1.7 0.00 0.00 0.00 95 1018.4
20260506120545 51 0 0.0 2.6 0.00 0.00 0.00 95 1018.4
20260506115544 51 214 0.0 1.7 0.00 0.00 0.00 95 1018.2
20260506115046 51 0 0.0 1.7 0.00 0.00 0.00 95 1018.2
20260506114550 51 0 0.0 1.7 0.00 0.00 0.00 95 1018.2
20260506114051 51 0 0.0 1.7 0.00 0.00 0.00 95 1018.1
20260506113546 51 214 0.0 0.9 0.00 0.00 0.00 95 1018.1
20260506113051 51 0 0.0 0.9 0.00 0.00 0.00 95 1018.0
20260506112549 51 0 0.0 0.9 0.00 0.00 0.00 95 1018.0
20260506112044 51 0 0.0 0.9 0.00 0.00 0.00 95 1018.0
20260506111553 51 0 0.0 0.0 0.00 0.00 0.00 95 1017.9
20260506111047 51 0 0.0 0.0 0.00 0.00 0.00 95 1017.9
20260506110547 50 0 0.0 0.0 0.00 0.00 0.00 95 1017.7
20260506110100 50 0 0.0 0.0 0.00 0.00 0.00 95 1017.7
20260506105546 50 0 0.0 0.0 0.00 0.00 0.00 95 1017.6
20260506105047 50 0 0.0 0.0 0.00 0.00 0.00 95 1017.5
20260506104606 50 0 0.0 0.0 0.00 0.00 0.00 95 1017.6
20260506104044 50 0 0.0 0.0 0.00 0.00 0.00 95 1017.5
20260506103547 50 0 0.0 0.0 0.00 0.00 0.00 95 1017.4
20260506103050 50 0 0.0 0.0 0.00 0.00 0.00 95 1017.4
20260506102551 50 0 0.0 0.0 0.00 0.00 0.00 95 1017.1
20260506102049 50 0 0.0 0.0 0.00 0.00 0.00 95 1017.2
20260506101553 50 0 0.0 0.0 0.00 0.00 0.00 95 1017.3
20260506101046 50 0 0.0 0.0 0.00 0.00 0.00 95 1017.2
20260506100547 49 0 0.0 0.0 0.00 0.00 0.00 95 1017.2
20260506095548 49 0 0.0 0.0 0.00 0.00 0.00 95 1017.3
20260506095046 49 0 0.0 0.0 0.00 0.00 0.00 95 1017.2
20260506094602 49 0 0.0 0.0 0.00 0.00 0.00 95 1017.1
20260506094048 49 0 0.0 0.9 0.00 0.00 0.00 95 1017.1
20260506093545 49 0 0.0 0.9 0.00 0.00 0.00 95 1017.1
20260506093054 49 215 0.0 0.9 0.00 0.00 0.00 95 1017.0
20260506092545 49 0 0.0 0.0 0.00 0.00 0.00 94 1017.0
20260506092045 49 0 0.0 0.0 0.00 0.00 0.00 94 1017.0
20260506091552 49 0 0.0 0.0 0.00 0.00 0.00 94 1017.1
20260506091047 49 0 0.0 0.0 0.00 0.00 0.00 95 1017.0
20260506090547 49 0 0.0 0.0 0.00 0.00 0.00 94 1017.1
20260506090050 49 0 0.0 0.0 0.00 0.00 0.00 94 1017.1
20260506085547 49 0 0.0 0.0 0.00 0.00 0.00 94 1017.0
20260506085047 49 0 0.0 0.0 0.00 0.00 0.00 94 1016.9
20260506084618 49 0 0.0 0.0 0.00 0.00 0.00 94 1016.8
20260506084046 49 0 0.0 0.0 0.00 0.00 0.00 94 1016.8
20260506083546 49 0 0.0 0.0 0.00 0.00 0.00 94 1016.6
20260506083051 49 0 0.0 0.0 0.00 0.00 0.00 94 1016.6
20260506082545 49 0 0.0 0.0 0.00 0.00 0.00 94 1016.6
20260506082045 49 0 0.0 0.0 0.00 0.00 0.00 94 1016.6
20260506081557 49 0 0.0 0.0 0.00 0.00 0.00 94 1016.6
20260506081046 50 0 0.0 0.0 0.00 0.00 0.00 94 1016.6
20260506080546 50 0 0.0 0.0 0.00 0.00 0.00 93 1016.6
20260506073054 50 0 0.0 0.0 0.00 0.00 0.00 93 1016.3
20260506072547 51 0 0.0 0.0 0.00 0.00 0.00 93 1016.2
20260506072047 51 0 0.0 0.0 0.00 0.00 0.00 93 1016.3
20260506071557 51 0 0.0 0.0 0.00 0.00 0.00 93 1016.2
20260506071046 51 0 0.0 0.0 0.00 0.00 0.00 93 1016.3
20260506070546 51 0 0.0 0.0 0.00 0.00 0.00 92 1016.3
20260506062045 52 0 0.0 0.0 0.00 0.00 0.00 92 1016.2
20260506061601 52 0 0.0 0.0 0.00 0.00 0.00 92 1016.1
20260506061045 52 0 0.0 0.0 0.00 0.00 0.00 91 1016.0
20260506060547 53 0 0.0 0.0 0.00 0.00 0.00 91 1016.0
20260506051045 54 0 0.0 0.0 0.00 0.00 0.00 89 1015.5
20260506050545 54 0 0.0 0.0 0.00 0.00 0.00 89 1015.4
20260506045044 55 0 0.0 0.0 0.00 0.00 0.00 88 1015.4
20260506044553 56 0 0.0 0.0 0.00 0.00 0.00 87 1015.3
20260506044047 56 0 0.0 0.0 0.00 0.00 0.00 87 1015.4
20260506043547 56 0 0.0 0.0 0.00 0.00 0.00 86 1015.4
20260506043050 57 0 0.0 0.0 0.00 0.00 0.00 86 1015.3
20260506042547 57 0 0.0 0.0 0.00 0.00 0.00 85 1015.2
20260506042047 57 0 0.0 0.0 0.00 0.00 0.00 85 1015.2
20260506041605 58 0 0.0 0.9 0.00 0.00 0.00 84 1015.1
20260506041048 58 0 0.0 1.7 0.00 0.00 0.00 84 1015.0
20260506040545 58 0 0.0 1.7 0.00 0.00 0.00 84 1015.0
20260506040100 58 0 0.0 0.9 0.00 0.00 0.00 83 1014.9
20260506035545 59 0 0.0 2.6 0.00 0.00 0.00 83 1014.9
20260506035046 59 0 0.0 2.6 0.00 0.00 0.00 83 1015.0
20260506034556 59 0 0.0 2.6 0.00 0.00 0.00 82 1015.0
20260506034043 59 0 0.0 0.9 0.00 0.00 0.00 82 1015.0
20260506033545 59 0 0.0 0.9 0.00 0.00 0.00 81 1014.9
20260506033052 60 0 0.0 0.0 0.00 0.00 0.00 80 1014.9
20260506032545 60 0 0.0 0.0 0.00 0.00 0.00 79 1014.8
20260506032048 61 0 0.0 0.9 0.00 0.00 0.00 78 1014.8
20260506031555 62 0 0.0 0.9 0.00 0.00 0.00 76 1014.7
20260506031047 63 0 0.0 0.9 0.00 0.00 0.00 75 1014.8
20260506030547 63 0 0.0 1.7 0.00 0.00 0.00 74 1014.7
20260506030054 64 0 0.0 1.7 0.00 0.00 0.00 74 1014.7
20260506025547 64 0 0.0 1.7 0.00 0.00 0.00 73 1014.6
20260506025051 64 190 0.0 2.6 0.00 0.00 0.00 71 1014.6
20260506024556 65 190 0.0 2.6 0.00 0.00 0.00 71 1014.6
20260506024045 65 190 0.9 3.5 0.00 0.00 0.00 71 1014.6
20260506023545 65 0 0.0 3.5 0.00 0.00 0.00 71 1014.6